| time (UTC) | temp C | wind direction | speed KPH | gust KPH | rain 1hr cm | rain 24hr cm | rain mn cm | humidity % | barometer mb |
| 20260507110059 | 4 | 360 | 17.7 | 24.1 | 0.00 | 0.00 | 0.00 | 81 | 1012.2 |
| 20260507104548 | 4 | 360 | 16.1 | 20.9 | 0.00 | 0.00 | 0.00 | 81 | 1012.6 |
| 20260507103049 | 4 | 360 | 14.5 | 22.5 | 0.00 | 0.00 | 0.00 | 80 | 1012.8 |
| 20260507101557 | 5 | 360 | 17.7 | 24.1 | 0.00 | 0.00 | 0.00 | 80 | 1013.0 |
| 20260507100050 | 5 | 360 | 19.3 | 25.7 | 0.00 | 0.00 | 0.00 | 79 | 1013.2 |
| 20260507094550 | 5 | 360 | 17.7 | 25.7 | 0.00 | 0.00 | 0.00 | 80 | 1013.2 |
| 20260507093049 | 5 | 360 | 16.1 | 24.1 | 0.00 | 0.00 | 0.00 | 81 | 1013.4 |
| 20260507091552 | 5 | 360 | 14.5 | 24.1 | 0.00 | 0.00 | 0.00 | 80 | 1013.4 |
| 20260507090047 | 5 | 360 | 17.7 | 25.7 | 0.00 | 0.00 | 0.00 | 80 | 1013.3 |
| 20260507084550 | 5 | 360 | 16.1 | 22.5 | 0.00 | 0.00 | 0.00 | 80 | 1013.3 |
| 20260507083051 | 5 | 360 | 17.7 | 25.7 | 0.00 | 0.00 | 0.00 | 79 | 1013.7 |
| 20260507081550 | 5 | 360 | 17.7 | 25.7 | 0.00 | 0.00 | 0.00 | 79 | 1013.9 |
| 20260507080053 | 5 | 360 | 20.9 | 30.6 | 0.00 | 0.00 | 0.00 | 79 | 1013.9 |
| 20260507074550 | 5 | 360 | 20.9 | 27.4 | 0.00 | 0.00 | 0.00 | 79 | 1014.3 |
| 20260507073121 | 6 | 360 | 19.3 | 27.4 | 0.00 | 0.00 | 0.00 | 78 | 1014.5 |
| 20260507071549 | 6 | 360 | 20.9 | 27.4 | 0.00 | 0.00 | 0.00 | 76 | 1014.9 |
| 20260507070051 | 6 | 360 | 19.3 | 29.0 | 0.00 | 0.00 | 0.00 | 76 | 1015.0 |
| 20260507064605 | 6 | 360 | 19.3 | 25.7 | 0.00 | 0.00 | 0.00 | 76 | 1015.3 |
| 20260507063059 | 6 | 360 | 17.7 | 22.5 | 0.00 | 0.00 | 0.00 | 74 | 1015.3 |
| 20260507061546 | 6 | 360 | 17.7 | 27.4 | 0.00 | 0.00 | 0.00 | 73 | 1015.3 |
| 20260507060046 | 6 | 360 | 19.3 | 27.4 | 0.00 | 0.00 | 0.00 | 72 | 1015.4 |
| 20260507054544 | 6 | 360 | 17.7 | 25.7 | 0.00 | 0.00 | 0.00 | 72 | 1015.6 |
| 20260507053050 | 7 | 360 | 19.3 | 29.0 | 0.00 | 0.00 | 0.00 | 70 | 1015.8 |
| 20260507051549 | 7 | 360 | 19.3 | 27.4 | 0.00 | 0.00 | 0.00 | 70 | 1015.6 |
| 20260507050053 | 6 | 360 | 17.7 | 24.1 | 0.00 | 0.00 | 0.00 | 69 | 1015.8 |
| 20260507044547 | 6 | 360 | 17.7 | 22.5 | 0.00 | 0.00 | 0.00 | 67 | 1016.0 |
| 20260507043051 | 7 | 360 | 17.7 | 25.7 | 0.00 | 0.00 | 0.00 | 63 | 1016.0 |
| 20260507041553 | 7 | 360 | 17.7 | 25.7 | 0.00 | 0.00 | 0.00 | 62 | 1016.2 |
| 20260507040103 | 7 | 360 | 16.1 | 24.1 | 0.00 | 0.00 | 0.00 | 62 | 1016.3 |
| 20260507034605 | 7 | 360 | 16.1 | 22.5 | 0.00 | 0.00 | 0.00 | 61 | 1016.3 |
| 20260507033104 | 7 | 360 | 14.5 | 20.9 | 0.00 | 0.00 | 0.00 | 61 | 1016.5 |
| 20260507031551 | 8 | 360 | 16.1 | 22.5 | 0.00 | 0.00 | 0.00 | 59 | 1016.4 |
| 20260507030054 | 8 | 360 | 14.5 | 22.5 | 0.00 | 0.00 | 0.00 | 59 | 1016.4 |
| 20260507024555 | 8 | 360 | 14.5 | 20.9 | 0.00 | 0.00 | 0.00 | 59 | 1016.6 |
| 20260507023054 | 8 | 360 | 11.3 | 19.3 | 0.00 | 0.00 | 0.00 | 58 | 1016.5 |
| 20260507021601 | 9 | 360 | 16.1 | 20.9 | 0.00 | 0.00 | 0.00 | 56 | 1016.4 |
| 20260507020055 | 10 | 360 | 14.5 | 20.9 | 0.00 | 0.00 | 0.00 | 54 | 1016.4 |
| 20260507014556 | 10 | 360 | 16.1 | 24.1 | 0.00 | 0.00 | 0.00 | 52 | 1016.3 |
| 20260507013109 | 11 | 360 | 22.5 | 33.8 | 0.00 | 0.00 | 0.00 | 50 | 1016.2 |
| 20260507011548 | 12 | 360 | 14.5 | 32.2 | 0.00 | 0.00 | 0.00 | 43 | 1016.0 |
| 20260507010055 | 12 | 360 | 22.5 | 30.6 | 0.00 | 0.00 | 0.00 | 42 | 1016.1 |
| 20260507004547 | 13 | 360 | 17.7 | 25.7 | 0.00 | 0.00 | 0.00 | 39 | 1016.0 |
| 20260507003057 | 13 | 360 | 11.3 | 25.7 | 0.00 | 0.00 | 0.00 | 40 | 1016.0 |
| 20260507001611 | 13 | 360 | 20.9 | 27.4 | 0.00 | 0.00 | 0.00 | 40 | 1016.1 |
| 20260507000051 | 13 | 360 | 22.5 | 33.8 | 0.00 | 0.00 | 0.00 | 39 | 1016.4 |
| 20260506234600 | 14 | 360 | 20.9 | 46.7 | 0.00 | 0.00 | 0.00 | 38 | 1016.4 |
| 20260506233053 | 13 | 360 | 17.7 | 33.8 | 0.00 | 0.00 | 0.00 | 37 | 1016.3 |
| 20260506231552 | 14 | 360 | 19.3 | 37.0 | 0.00 | 0.00 | 0.00 | 35 | 1016.5 |
| 20260506230045 | 15 | 360 | 24.1 | 37.0 | 0.00 | 0.00 | 0.00 | 32 | 1016.3 |
| 20260506224604 | 14 | 360 | 24.1 | 33.8 | 0.00 | 0.00 | 0.00 | 30 | 1016.5 |
| 20260506223054 | 14 | 360 | 14.5 | 27.4 | 0.00 | 0.00 | 0.00 | 31 | 1016.4 |
| 20260506221549 | 14 | 360 | 20.9 | 33.8 | 0.00 | 0.00 | 0.00 | 30 | 1016.5 |
| 20260506214551 | 14 | 360 | 14.5 | 33.8 | 0.00 | 0.00 | 0.00 | 29 | 1016.9 |
| 20260506213049 | 15 | 360 | 20.9 | 30.6 | 0.00 | 0.00 | 0.00 | 29 | 1016.9 |
| 20260506211556 | 13 | 360 | 16.1 | 33.8 | 0.00 | 0.00 | 0.00 | 31 | 1017.1 |
| 20260506210050 | 13 | 360 | 3.2 | 20.9 | 0.00 | 0.00 | 0.00 | 34 | 1017.5 |
| 20260506204549 | 13 | 360 | 17.7 | 25.7 | 0.00 | 0.00 | 0.00 | 30 | 1017.7 |
| 20260506203057 | 13 | 360 | 11.3 | 22.5 | 0.00 | 0.00 | 0.00 | 30 | 1017.8 |
| 20260506201552 | 13 | 360 | 16.1 | 30.6 | 0.00 | 0.00 | 0.00 | 30 | 1018.0 |
| 20260506200051 | 14 | 360 | 19.3 | 30.6 | 0.00 | 0.00 | 0.00 | 29 | 1018.1 |
| 20260506194554 | 15 | 360 | 17.7 | 33.8 | 0.00 | 0.00 | 0.00 | 29 | 1018.2 |
| 20260506193059 | 14 | 360 | 12.9 | 27.4 | 0.00 | 0.00 | 0.00 | 30 | 1018.2 |
| 20260506191552 | 13 | 360 | 8.0 | 32.2 | 0.00 | 0.00 | 0.00 | 31 | 1018.4 |
| 20260506190059 | 13 | 360 | 17.7 | 33.8 | 0.00 | 0.00 | 0.00 | 30 | 1018.5 |
| 20260506184550 | 12 | 360 | 8.0 | 19.3 | 0.00 | 0.00 | 0.00 | 32 | 1018.7 |
| 20260506183103 | 12 | 360 | 14.5 | 30.6 | 0.00 | 0.00 | 0.00 | 31 | 1018.9 |
| 20260506181620 | 13 | 360 | 12.9 | 27.4 | 0.00 | 0.00 | 0.00 | 32 | 1019.0 |
| 20260506180051 | 12 | 360 | 12.9 | 20.9 | 0.00 | 0.00 | 0.00 | 32 | 1019.3 |
| 20260506174551 | 13 | 360 | 17.7 | 27.4 | 0.00 | 0.00 | 0.00 | 31 | 1019.4 |
| 20260506173121 | 12 | 360 | 8.0 | 24.1 | 0.00 | 0.00 | 0.00 | 32 | 1019.4 |
| 20260506171555 | 11 | 360 | 3.2 | 22.5 | 0.00 | 0.00 | 0.00 | 34 | 1019.6 |
| 20260506170057 | 11 | 360 | 16.1 | 24.1 | 0.00 | 0.00 | 0.00 | 33 | 1019.5 |
| 20260506164547 | 12 | 360 | 8.0 | 20.9 | 0.00 | 0.00 | 0.00 | 36 | 1019.3 |
| 20260506163048 | 11 | 360 | 4.8 | 22.5 | 0.00 | 0.00 | 0.00 | 35 | 1019.4 |
| 20260506161550 | 11 | 360 | 16.1 | 25.7 | 0.00 | 0.00 | 0.00 | 35 | 1019.6 |
| 20260506160059 | 11 | 360 | 12.9 | 22.5 | 0.00 | 0.00 | 0.00 | 33 | 1019.7 |
| 20260506154554 | 10 | 360 | 4.8 | 16.1 | 0.00 | 0.00 | 0.00 | 36 | 1019.7 |
| 20260506153046 | 10 | 360 | 4.8 | 20.9 | 0.00 | 0.00 | 0.00 | 38 | 1019.7 |
| 20260506151550 | 10 | 360 | 4.8 | 16.1 | 0.00 | 0.00 | 0.00 | 37 | 1019.7 |
| 20260506150050 | 9 | 360 | 1.6 | 8.0 | 0.00 | 0.00 | 0.00 | 40 | 1019.6 |
| 20260506144550 | 9 | 360 | 1.6 | 8.0 | 0.00 | 0.00 | 0.00 | 39 | 1019.6 |
| 20260506143048 | 9 | 360 | 3.2 | 8.0 | 0.00 | 0.00 | 0.00 | 38 | 1019.5 |
| 20260506141555 | 8 | 0 | 0.0 | 4.8 | 0.00 | 0.00 | 0.00 | 43 | 1019.5 |
| 20260506140051 | 7 | 0 | 0.0 | 6.4 | 0.00 | 0.00 | 0.00 | 47 | 1019.4 |
| 20260506134554 | 7 | 360 | 1.6 | 6.4 | 0.00 | 0.00 | 0.00 | 54 | 1019.5 |
| 20260506133058 | 6 | 360 | 3.2 | 8.0 | 0.00 | 0.00 | 0.00 | 54 | 1019.4 |
| 20260506131558 | 6 | 360 | 4.8 | 6.4 | 0.00 | 0.00 | 0.00 | 57 | 1019.3 |
| 20260506130057 | 5 | 360 | 3.2 | 6.4 | 0.00 | 0.00 | 0.00 | 63 | 1019.0 |
| 20260506124555 | 5 | 360 | 3.2 | 6.4 | 0.00 | 0.00 | 0.00 | 65 | 1018.8 |
| 20260506123057 | 4 | 360 | 1.6 | 4.8 | 0.00 | 0.00 | 0.00 | 69 | 1018.6 |
| 20260506121551 | 3 | 0 | 0.0 | 1.6 | 0.00 | 0.00 | 0.00 | 71 | 1018.4 |
| 20260506120053 | 3 | 0 | 0.0 | 3.2 | 0.00 | 0.00 | 0.00 | 73 | 1018.1 |
| 20260506114553 | 3 | 0 | 0.0 | 3.2 | 0.00 | 0.00 | 0.00 | 74 | 1018.0 |
| 20260506113050 | 3 | 360 | 1.6 | 3.2 | 0.00 | 0.00 | 0.00 | 72 | 1017.9 |
| 20260506111549 | 3 | 360 | 0.0 | 0.0 | 0.00 | 0.00 | 0.00 | 73 | 1017.8 |